User: anonymous   Login
Location: Hemaruka
(51.7801°N, 111.0917°W)
Time: 22:00:23
(UTC+00:00)
Language:

Envisat - Orbit

View from above orbital plane
View from above orbital plane
View from above satellite
View from above satellite

Ground track
Ground track

The orbit data is extracted from the following two-line orbital elements,

1 27386U 02009A   24176.47571104  .00000160  00000-0  66002-4 0  9991
2 27386  98.2826 137.3108 0001374  90.0485  19.6621 14.38593886169621
Epoch (UTC): 24 June 2024 11:25:01
Eccentricity: 0.0001374
inclination: 98.2826°
perigee height: 762 km
apogee height: 764 km
right ascension of ascending node: 137.3108°
argument of perigee: 90.0485°
revolutions per day: 14.38593886
mean anomaly at epoch: 19.6621°
orbit number at epoch: 16962

The dashed part of the orbit path shows where the satellite is in the earth's shadow,  

DLR